Stations météo

réclame
Mon MeteoGroup
Altnaharra, Grande-Bretagne (3044): Température de l'air & dewpoint: 08.10.2019 19:00:00 - 14.10.2019 19:00:00 (BST)Altnaharra, Grande-Bretagne (3044): Température de l'air -20cm & Température de l'air -100cm: 08.10.2019 19:00:00 - 14.10.2019 19:00:00 (BST)Altnaharra, Grande-Bretagne (3044): Vitesse du vent & gusts: 08.10.2019 19:00:00 - 14.10.2019 19:00:00 (BST)Altnaharra, Grande-Bretagne (3044): Direction du vent: 08.10.2019 19:00:00 - 14.10.2019 19:00:00 (BST)Altnaharra, Grande-Bretagne (3044): reduced air pressure: 08.10.2019 19:00:00 - 14.10.2019 19:00:00 (BST)Altnaharra, Grande-Bretagne (3044): visibility: 08.10.2019 19:00:00 - 14.10.2019 19:00:00 (BST)Altnaharra, Grande-Bretagne (3044): Ensoleillement: 08.10.2019 19:00:00 - 14.10.2019 19:00:00 (BST)Altnaharra, Grande-Bretagne (3044): Quantités de précipitations: 08.10.2019 19:00:00 - 14.10.2019 19:00:00 (BST)
Date & Time tt [°C] td [°C] tt -20cm [°C] tt -100cm [°C] ff [km/h] ff [knt] fx [km/h] fx [knt] dd ppp [hPa] vv [km] sd [min] rr [mm]
14.10.2019 19:00:00 7,6 6,6 - - 8 4 - - W 1007,4 40 0 0,0
14.10.2019 18:00:00 9,3 7,5 - - 4 2 - - WSW 1007,2 50 0 0,0
14.10.2019 17:00:00 10,0 8,4 - - 4 2 - - E 1007,1 50 0 0,0
14.10.2019 16:00:00 11,0 8,3 - - 2 1 - - ESE 1007,3 45 0 0,0
14.10.2019 15:00:00 10,8 8,4 - - 5 3 - - E 1007,2 50 0 0,0
14.10.2019 14:00:00 11,1 8,2 - - 5 3 - - SW 1007,1 50 0 0,0
14.10.2019 13:00:00 10,4 8,6 - - 8 4 - - WSW 1007,4 45 12 0,0
14.10.2019 12:00:00 8,3 8,3 - - 8 4 - - E 1007,7 50 6 0,0
14.10.2019 11:00:00 6,2 6,2 - - 2 1 - - SE 1007,6 50 0 0,0
14.10.2019 10:00:00 4,1 4,1 10,2 11,0 2 1 - - SSE 1007,4 20 0 0,0
14.10.2019 09:00:00 2,2 2,2 - - 2 1 - - ENE 1007,2 0,2 0 0,0
14.10.2019 08:00:00 1,2 1,2 - - 5 3 - - ESE 1006,8 0,8 0 0,0
14.10.2019 07:00:00 1,7 1,7 - - 4 2 - - WNW 1006,6 0,5 0 0,0
14.10.2019 06:00:00 1,4 1,3 - - 2 1 - - ESE 1006,1 11 0 0,0
14.10.2019 05:00:00 2,2 2,1 - - 2 1 - - E 1005,9 6 0 0,0
14.10.2019 04:00:00 2,9 2,8 - - 2 1 - - WSW 1005,6 17 0 0,0
14.10.2019 03:00:00 2,4 2,3 - - 2 1 - - NW 1005,4 1,0 0 0,0
14.10.2019 02:00:00 2,3 2,1 - - 2 1 - - SSE 1005,2 7 0 0,0
14.10.2019 01:00:00 3,2 3,0 - - 2 1 - - N 1004,7 45 - 0,0
14.10.2019 00:00:00 3,5 3,3 - - 2 1 - - SE 1004,4 30 0 0,0
13.10.2019 23:00:00 3,6 3,3 - - 5 3 - - ESE 1003,9 45 0 0,0
13.10.2019 22:00:00 4,4 4,2 - - 0 0 - - N 1003,5 45 0 0,0
13.10.2019 21:00:00 4,1 3,9 - - 2 1 - - NNW 1003,2 50 0 0,0
13.10.2019 20:00:00 3,4 2,6 - - 2 1 - - S 1002,8 50 0 0,0
13.10.2019 19:00:00 5,1 3,9 - - 2 1 - - ENE 1002,1 50 0 0,0
13.10.2019 18:00:00 7,7 6,1 - - 0 0 - - N 1001,5 35 0 0,0
13.10.2019 17:00:00 9,1 5,9 - - 2 1 - - SW 1001,3 50 0 0,0
13.10.2019 16:00:00 11,0 5,3 - - 11 6 - - ENE 1001,3 50 24 0,0
13.10.2019 15:00:00 12,5 5,8 - - 11 6 - - ENE 1001,5 50 24 0,0
13.10.2019 14:00:00 12,0 6,0 - - 9 5 - - NE 1002,0 50 54 0,0
13.10.2019 13:00:00 10,9 7,4 - - 5 3 - - ESE 1002,4 45 60 0,0
13.10.2019 12:00:00 8,8 6,5 - - 4 2 - - SE 1002,7 35 60 0,0
13.10.2019 11:00:00 4,7 4,7 - - 2 1 - - WSW 1003,2 40 60 0,0
13.10.2019 10:00:00 1,7 1,7 10,7 11,2 2 1 - - W 1003,6 1,1 60 0,0
13.10.2019 09:00:00 0,0 -0,1 - - 2 1 - - WSW 1003,3 1,4 6 0,0
13.10.2019 08:00:00 -0,2 -0,4 - - 4 2 - - W 1003,1 0,2 0 0,0
13.10.2019 07:00:00 0,1 -0,1 - - 5 3 - - N 1002,7 0,1 0 0,0
13.10.2019 06:00:00 0,4 0,1 - - 2 1 - - ESE 1002,6 45 0 0,0
13.10.2019 05:00:00 1,0 0,6 - - 4 2 - - W 1002,6 50 0 0,0
13.10.2019 04:00:00 3,0 2,6 - - 4 2 - - E 1002,4 50 0 0,2
13.10.2019 03:00:00 3,7 3,2 - - 2 1 - - E 1002,3 40 0 0,0
13.10.2019 02:00:00 4,5 3,9 - - 4 2 - - ENE 1002,1 50 0 0,0
13.10.2019 01:00:00 5,2 4,5 - - 4 2 - - NNW 1001,8 50 - 0,0
13.10.2019 00:00:00 6,5 5,6 - - 4 2 - - NW 1001,5 50 0 0,2
12.10.2019 23:00:00 7,0 6,1 - - 4 2 - - S 1001,3 14 0 0,8
12.10.2019 22:00:00 8,1 6,8 - - 8 4 - - SW 1000,8 24 0 0,6
12.10.2019 21:00:00 7,9 6,7 - - 13 7 - - S 1000,3 50 0 0,0
12.10.2019 20:00:00 7,9 6,6 - - 9 5 - - SSW 999,9 50 0 1,6
12.10.2019 19:00:00 8,1 6,4 - - 11 6 - - WSW 999,2 14 0 1,2
12.10.2019 18:00:00 9,0 7,5 - - 9 5 - - WSW 998,8 7 0 1,2
12.10.2019 17:00:00 10,8 7,0 - - 11 6 - - SSW 998,2 40 30 0,0
12.10.2019 16:00:00 11,1 8,0 - - 11 6 - - SSW 997,9 45 12 0,0
12.10.2019 15:00:00 11,1 7,2 - - 15 8 - - S 997,9 45 18 0,0
12.10.2019 14:00:00 10,3 8,1 - - 15 8 - - S 997,7 45 0 0,0
12.10.2019 13:00:00 9,2 7,4 - - 13 7 - - S 997,8 50 0 0,0
12.10.2019 12:00:00 11,2 7,8 - - 18 10 - - S 996,9 45 18 0,0
12.10.2019 11:00:00 10,5 8,0 - - 13 7 - - S 996,5 40 0 0,0
12.10.2019 10:00:00 9,3 6,5 10,9 11,2 5 3 - - E 996,1 45 0 0,0
12.10.2019 09:00:00 8,3 5,8 - - 15 8 - - S 995,5 50 0 0,0
12.10.2019 08:00:00 8,5 6,8 - - 13 7 - - S 995,2 40 0 0,0
12.10.2019 07:00:00 9,1 6,2 - - 15 8 - - SSW 995,0 50 0 0,0
12.10.2019 06:00:00 8,0 5,5 - - 13 7 - - SW 994,7 50 0 0,0
12.10.2019 05:00:00 7,0 4,8 - - 8 4 - - SE 994,6 45 0 0,0
12.10.2019 04:00:00 8,1 5,5 - - 9 5 - - SSW 994,5 50 0 0,0
12.10.2019 03:00:00 8,1 6,6 - - 8 4 - - SSW 994,2 50 0 0,0
12.10.2019 02:00:00 8,2 6,6 - - 11 6 - - SSW 994,1 40 0 0,0
12.10.2019 01:00:00 8,0 5,4 - - 9 5 - - S 993,6 50 - 0,0
12.10.2019 00:00:00 7,8 6,8 - - 5 3 - - S 993,0 50 0 0,0
11.10.2019 23:00:00 8,5 8,0 - - 11 6 - - W 992,3 45 0 0,2
11.10.2019 22:00:00 8,6 8,3 - - 9 5 - - WSW 991,2 45 0 1,2
11.10.2019 21:00:00 8,5 8,2 - - 8 4 - - NW 990,2 5 0 2,4
11.10.2019 20:00:00 8,5 7,9 - - 4 2 - - WNW 989,4 3,8 0 4,2
11.10.2019 19:00:00 9,2 8,5 - - 4 2 - - SW 988,7 6 0 1,4
11.10.2019 18:00:00 9,3 8,3 - - 8 4 - - WSW 988,0 30 0 1,2
11.10.2019 17:00:00 9,5 8,1 - - 9 5 - - SW 987,7 50 6 2,2
11.10.2019 16:00:00 10,0 8,0 - - 24 13 - - WSW 987,3 18 12 1,0
11.10.2019 15:00:00 12,3 9,9 - - 21 11 - - SW 986,4 21 30 0,2
11.10.2019 14:00:00 12,0 8,4 - - 18 10 - - S 986,1 14 18 0,0
11.10.2019 13:00:00 12,9 8,0 - - 18 10 - - S 986,2 28 48 0,0
11.10.2019 12:00:00 11,7 9,2 - - 15 8 - - S 986,6 40 36 0,0
11.10.2019 11:00:00 12,0 8,2 - - 15 8 - - S 986,5 35 42 0,0
11.10.2019 10:00:00 10,0 8,5 10,9 11,2 13 7 - - S 986,3 50 6 0,2
11.10.2019 09:00:00 9,7 8,4 - - 11 6 - - S 986,3 13 0 1,0
11.10.2019 08:00:00 9,9 8,0 - - 13 7 - - S 986,3 9 0 0,8
11.10.2019 07:00:00 9,2 8,0 - - 13 7 - - S 986,6 6 0 1,0
11.10.2019 06:00:00 9,1 7,3 - - 11 6 - - S 986,8 40 0 0,0
11.10.2019 05:00:00 8,7 6,8 - - 8 4 - - SSW 987,3 50 0 0,0
11.10.2019 04:00:00 9,9 8,1 - - 13 7 - - S 987,8 18 0 0,0
11.10.2019 03:00:00 8,9 7,5 - - 4 2 - - WSW 988,1 50 0 0,2
11.10.2019 02:00:00 9,1 7,7 - - 8 4 - - WSW 988,4 18 0 0,0
11.10.2019 01:00:00 9,2 7,7 - - 9 5 - - SSW 988,3 35 - 0,2
11.10.2019 00:00:00 9,2 7,8 - - 8 4 - - WNW 988,4 35 0 0,0
10.10.2019 23:00:00 9,2 7,8 - - 5 3 - - WSW 989,0 18 0 0,2
10.10.2019 22:00:00 8,9 7,4 - - 11 6 - - N 989,7 50 0 0,2
10.10.2019 21:00:00 8,8 7,2 - - 9 5 - - NW 990,7 35 0 0,0
10.10.2019 20:00:00 9,8 7,1 - - 5 3 - - N 991,8 45 0 0,2
10.10.2019 19:00:00 9,2 7,2 - - 5 3 - - E 992,8 50 0 0,0
10.10.2019 18:00:00 10,0 7,7 - - 5 3 - - S 993,3 50 0 0,0
10.10.2019 17:00:00 10,7 7,4 - - 8 4 - - SSE 994,1 40 0 0,0
10.10.2019 16:00:00 11,9 6,3 - - 9 5 - - S 994,7 40 54 0,0
10.10.2019 15:00:00 11,4 6,3 - - 9 5 - - SW 995,2 45 0 0,0
10.10.2019 14:00:00 11,8 5,2 - - 11 6 - - SW 995,6 35 54 0,0
10.10.2019 13:00:00 11,7 5,7 - - 18 10 - - SW 995,7 30 48 0,0
10.10.2019 12:00:00 10,7 5,4 - - 24 13 - - WSW 995,9 40 6 0,0
10.10.2019 11:00:00 9,8 6,0 - - 26 14 - - WSW 995,7 28 0 0,0
10.10.2019 10:00:00 9,3 6,0 11,0 11,4 16 9 - - WSW 995,3 30 0 0,0
10.10.2019 09:00:00 8,9 5,5 - - 15 8 - - WSW 994,9 45 0 0,0
10.10.2019 08:00:00 8,5 5,3 - - 13 7 - - W 994,0 45 0 0,0
10.10.2019 07:00:00 8,2 6,5 - - 16 9 - - W 993,3 30 0 0,2
10.10.2019 06:00:00 8,3 6,8 - - 16 9 - - W 992,4 16 0 0,4
10.10.2019 05:00:00 8,6 7,6 - - 26 14 48 26 W 991,2 4,5 0 0,8
10.10.2019 04:00:00 8,7 7,6 - - 29 16 50 27 WSW 990,1 17 0 0,8
10.10.2019 03:00:00 9,2 7,7 - - 22 12 46 25 WSW 989,2 13 0 0,0
10.10.2019 02:00:00 9,7 7,8 - - 28 15 52 28 WSW 988,5 35 0 0,0
10.10.2019 01:00:00 10,2 8,0 - - 26 14 - - WSW 987,7 30 - 0,0
10.10.2019 00:00:00 10,2 8,4 - - 18 10 50 27 WSW 986,9 35 0 0,4
09.10.2019 23:00:00 10,2 8,6 - - 18 10 - - SW 986,6 45 0 1,0
09.10.2019 22:00:00 10,5 8,5 - - 21 11 - - SW 985,8 45 0 0,6
09.10.2019 21:00:00 10,5 8,9 - - 16 9 50 27 SSW 985,1 8 0 0,2
09.10.2019 20:00:00 10,7 9,4 - - 21 11 46 25 SSW 984,9 4,9 0 0,8
09.10.2019 19:00:00 10,9 9,4 - - 22 12 - - SSW 984,8 16 0 1,4
09.10.2019 18:00:00 10,7 8,9 - - 21 11 - - S 984,7 11 0 0,2
09.10.2019 17:00:00 11,1 8,9 - - 18 10 - - S 985,0 7 0 0,0
09.10.2019 16:00:00 10,6 9,0 - - 18 10 - - S 984,9 11 0 0,2
09.10.2019 15:00:00 11,0 8,9 - - 21 11 - - SSW 985,0 11 0 1,0
09.10.2019 14:00:00 10,3 8,5 - - 21 11 - - SSW 985,1 7 0 1,0
09.10.2019 13:00:00 11,2 9,5 - - 15 8 - - S 984,6 11 0 0,0
09.10.2019 12:00:00 11,3 9,5 - - 21 11 - - SSW 984,8 30 0 0,2
09.10.2019 11:00:00 10,8 9,8 - - 18 10 - - S 984,6 16 0 0,4
09.10.2019 10:00:00 9,7 8,7 11,0 11,4 15 8 - - S 984,7 17 0 1,6
09.10.2019 09:00:00 9,5 8,3 - - 22 12 - - S 984,6 12 0 0,4
09.10.2019 08:00:00 9,3 8,2 - - 21 11 - - S 984,8 18 0 0,6
09.10.2019 07:00:00 9,6 8,3 - - 18 10 - - S 984,7 8 0 0,2
09.10.2019 06:00:00 10,0 8,2 - - 18 10 - - S 984,5 7 0 0,2
09.10.2019 05:00:00 9,7 7,8 - - 18 10 - - S 984,5 45 0 0,6
09.10.2019 04:00:00 9,8 8,0 - - 18 10 - - SSW 984,6 12 0 0,2
09.10.2019 03:00:00 9,5 8,1 - - 18 10 - - S 985,0 6 0 0,8
09.10.2019 02:00:00 9,7 8,0 - - 18 10 - - SSW 984,7 30 0 0,2
09.10.2019 01:00:00 10,0 8,7 - - 18 10 - - SSW 984,9 19 - 1,0
09.10.2019 00:00:00 9,6 8,3 - - 15 8 - - S 984,7 35 0 0,0
08.10.2019 23:00:00 9,5 8,3 - - 18 10 - - S 984,7 17 0 1,4
08.10.2019 22:00:00 9,5 8,2 - - 15 8 - - S 984,6 16 0 0,0
08.10.2019 21:00:00 9,8 8,1 - - 18 10 - - S 984,5 24 0 0,0
08.10.2019 20:00:00 10,0 8,2 - - 13 7 - - S 984,6 12 0 0,0
08.10.2019 19:00:00 9,8 7,9 - - 11 6 - - S 984,7 40 0 0,0

tt = Température de l'air
td = dewpoint
tt -20cm = Température de l'air -20cm
tt -100cm = Température de l'air -100cm
ff = Vitesse du vent
fx = gusts
dd = Direction du vent
ppp = reduced air pressure
vv = visibility
sd = Ensoleillement
rr = Quantités de précipitations

stations d'obs. à proximité